BTI14KN EPPO-GCLP

Flight info

Callsign BTI14KN
Flight time N/A
Altitude 36000
Route ERNOX P861 LATAG T174 KORUP DCT PEROX Z715 ANELA N869 TEDGO/N0455F350 N869 OLBEN DCT ONNOF DCT BELUS/N0454F360 DCT LSE/N0453F370 UY305 ESIDA DCT GAI DCT PERDU DCT KONKE Z245 CJN N10 SVL N857 KORNO UN857 TERTO
Aircraft B38M/M-SDE1FGHILORVWXY/HB1

Departure

Time N/A
Airport Poznań-Ławica Airport (EPPO)

Arrival

Time 2026-05-04 14:28
Airport Gran Canaria Airport (GCLP)
Time Latitude Longitude Altitude Speed Heading
2026-05-04 13:31 30.58403 -12.30571 19052 ft 367 kts 219°
2026-05-04 13:31 30.56517 -12.32204 18772 ft 366 kts 219°
2026-05-04 13:31 30.54480 -12.33965 18469 ft 364 kts 219°
2026-05-04 13:32 30.52449 -12.35720 18121 ft 363 kts 219°
2026-05-04 13:32 30.50431 -12.37463 17761 ft 361 kts 219°
2026-05-04 13:32 30.48416 -12.39198 17424 ft 360 kts 219°
2026-05-04 13:32 30.46410 -12.40921 17080 ft 358 kts 219°
2026-05-04 13:33 30.44412 -12.42637 16743 ft 356 kts 219°
2026-05-04 13:33 30.42424 -12.44346 16412 ft 355 kts 219°
2026-05-04 13:33 30.40445 -12.46046 16083 ft 353 kts 219°
2026-05-04 13:33 30.38481 -12.47730 15761 ft 352 kts 219°
2026-05-04 13:34 30.36513 -12.49418 15451 ft 350 kts 220°
2026-05-04 13:34 30.34560 -12.51093 15143 ft 347 kts 220°
2026-05-04 13:34 30.32647 -12.52730 15106 ft 342 kts 220°
2026-05-04 13:34 30.30707 -12.54395 15111 ft 346 kts 220°
2026-05-04 13:35 30.28781 -12.56043 15112 ft 346 kts 220°
2026-05-04 13:35 30.24910 -12.59352 15114 ft 346 kts 220°
2026-05-04 13:35 30.22979 -12.61004 15111 ft 345 kts 220°
2026-05-04 13:36 30.21067 -12.62637 15115 ft 345 kts 220°
2026-05-04 13:36 30.19137 -12.64285 15114 ft 345 kts 220°
2026-05-04 13:36 30.17296 -12.65856 15112 ft 345 kts 220°
2026-05-04 13:36 30.15289 -12.67568 15112 ft 345 kts 220°
2026-05-04 13:37 30.13362 -12.69212 15112 ft 345 kts 220°
2026-05-04 13:37 30.11428 -12.70859 15112 ft 345 kts 220°
2026-05-04 13:37 30.09500 -12.72502 15108 ft 342 kts 220°
2026-05-04 13:37 30.07614 -12.74114 15106 ft 335 kts 220°
2026-05-04 13:38 30.05729 -12.75731 15105 ft 338 kts 220°
2026-05-04 13:38 30.03850 -12.77338 15108 ft 337 kts 220°
2026-05-04 13:38 30.01964 -12.78948 15101 ft 336 kts 220°
2026-05-04 13:38 30.00083 -12.80552 15104 ft 336 kts 220°
2026-05-04 13:39 29.98224 -12.82140 15101 ft 337 kts 220°
2026-05-04 13:39 29.96316 -12.83768 15099 ft 337 kts 220°
2026-05-04 13:39 29.94454 -12.85356 15098 ft 337 kts 220°
2026-05-04 13:39 29.92572 -12.86959 15104 ft 336 kts 220°
2026-05-04 13:40 29.90684 -12.88567 15104 ft 336 kts 220°
2026-05-04 13:40 29.88806 -12.90166 15107 ft 336 kts 220°
2026-05-04 13:40 29.86923 -12.91769 15098 ft 336 kts 220°
2026-05-04 13:40 29.85040 -12.93370 15092 ft 336 kts 220°
2026-05-04 13:41 29.83163 -12.94966 15104 ft 336 kts 220°
2026-05-04 13:41 29.81279 -12.96566 15102 ft 336 kts 220°
2026-05-04 13:41 29.79397 -12.98165 15101 ft 336 kts 220°
2026-05-04 13:42 29.75664 -13.01333 15094 ft 336 kts 220°
2026-05-04 13:42 29.73776 -13.02935 15095 ft 335 kts 220°
2026-05-04 13:42 29.71903 -13.04522 15098 ft 335 kts 220°
2026-05-04 13:42 29.70025 -13.06113 15091 ft 335 kts 220°
2026-05-04 13:43 29.68151 -13.07701 15091 ft 335 kts 220°
2026-05-04 13:43 29.66276 -13.09288 15105 ft 334 kts 220°
2026-05-04 13:43 29.64397 -13.10879 15050 ft 337 kts 220°
2026-05-04 13:43 29.62522 -13.12463 15003 ft 332 kts 220°
2026-05-04 13:44 29.60641 -13.14054 15003 ft 336 kts 220°
2026-05-04 13:44 29.58767 -13.15636 15002 ft 333 kts 220°
2026-05-04 13:44 29.56915 -13.17201 15004 ft 334 kts 220°
2026-05-04 13:44 29.55045 -13.18779 15003 ft 334 kts 220°
2026-05-04 13:45 29.53167 -13.20364 15004 ft 334 kts 220°
2026-05-04 13:45 29.51292 -13.21945 15006 ft 334 kts 220°
2026-05-04 13:45 29.49418 -13.23524 15004 ft 334 kts 220°
2026-05-04 13:45 29.47546 -13.25102 15004 ft 333 kts 220°
2026-05-04 13:46 29.45678 -13.26675 15003 ft 334 kts 220°
2026-05-04 13:46 29.43802 -13.28254 14994 ft 334 kts 220°
2026-05-04 13:46 29.41932 -13.29827 14995 ft 333 kts 220°
2026-05-04 13:46 29.40067 -13.31395 14995 ft 333 kts 220°
2026-05-04 13:47 29.38200 -13.32965 14992 ft 333 kts 220°
2026-05-04 13:47 29.36334 -13.34533 14992 ft 333 kts 220°
2026-05-04 13:47 29.34464 -13.36103 14994 ft 333 kts 220°
2026-05-04 13:47 29.32595 -13.37672 14994 ft 333 kts 220°
2026-05-04 13:48 29.30724 -13.39241 14994 ft 333 kts 220°
2026-05-04 13:48 29.28881 -13.40787 14994 ft 333 kts 220°
2026-05-04 13:48 29.26988 -13.42374 14994 ft 333 kts 220°
2026-05-04 13:48 29.25123 -13.43937 14992 ft 333 kts 220°
2026-05-04 13:49 29.23276 -13.45483 14991 ft 333 kts 220°
2026-05-04 13:49 29.21411 -13.47045 14988 ft 333 kts 220°
2026-05-04 13:49 29.19538 -13.48611 14988 ft 332 kts 220°
2026-05-04 13:49 29.17669 -13.50175 14980 ft 333 kts 220°
2026-05-04 13:50 29.15850 -13.51791 14981 ft 329 kts 224°
2026-05-04 13:50 29.14112 -13.53526 14978 ft 331 kts 225°
2026-05-04 13:50 29.12386 -13.55246 14976 ft 328 kts 224°
2026-05-04 13:50 29.10660 -13.56951 14975 ft 328 kts 224°
2026-05-04 13:51 29.08932 -13.58654 14974 ft 328 kts 224°
2026-05-04 13:51 29.07224 -13.60343 14972 ft 328 kts 224°
2026-05-04 13:51 29.05502 -13.62046 14973 ft 328 kts 224°
2026-05-04 13:51 29.03772 -13.63754 14975 ft 328 kts 224°
2026-05-04 13:52 29.00314 -13.67165 14973 ft 328 kts 224°
2026-05-04 13:52 28.98588 -13.68867 14973 ft 328 kts 224°
2026-05-04 13:52 28.96861 -13.70570 14973 ft 328 kts 224°
2026-05-04 13:53 28.95128 -13.72277 14974 ft 328 kts 224°
2026-05-04 13:53 28.93403 -13.73975 14974 ft 328 kts 224°
2026-05-04 13:53 28.91671 -13.75680 14973 ft 328 kts 224°
2026-05-04 13:54 28.88215 -13.79080 14980 ft 327 kts 224°
2026-05-04 13:54 28.86490 -13.80775 14979 ft 329 kts 224°
2026-05-04 13:54 28.83022 -13.84181 14980 ft 328 kts 224°
2026-05-04 13:55 28.81294 -13.85877 14981 ft 328 kts 224°
2026-05-04 13:55 28.77850 -13.89255 14984 ft 327 kts 224°
2026-05-04 13:55 28.76125 -13.90947 14985 ft 327 kts 224°
2026-05-04 13:56 28.74402 -13.92635 14984 ft 327 kts 224°
2026-05-04 13:56 28.72701 -13.94300 14984 ft 327 kts 224°
2026-05-04 13:56 28.69258 -13.97670 14985 ft 327 kts 224°
2026-05-04 13:57 28.67534 -13.99356 14986 ft 327 kts 224°
2026-05-04 13:57 28.65813 -14.01039 14987 ft 326 kts 224°
2026-05-04 13:58 28.61033 -14.05708 14790 ft 327 kts 224°
2026-05-04 13:58 28.57614 -14.09042 13686 ft 321 kts 224°
2026-05-04 13:58 28.55923 -14.10691 13040 ft 318 kts 224°
2026-05-04 13:59 28.54248 -14.12324 12403 ft 316 kts 224°
2026-05-04 13:59 28.52580 -14.13950 11789 ft 314 kts 224°
2026-05-04 13:59 28.49282 -14.17160 10588 ft 310 kts 224°
2026-05-04 14:00 28.47651 -14.18746 10112 ft 305 kts 224°
2026-05-04 14:00 28.44428 -14.21885 9987 ft 313 kts 224°
2026-05-04 14:00 28.42805 -14.23458 9983 ft 297 kts 223°
2026-05-04 14:01 28.41279 -14.24934 9967 ft 278 kts 224°
2026-05-04 14:01 28.39849 -14.26323 9968 ft 267 kts 224°
2026-05-04 14:01 28.36959 -14.29135 9969 ft 271 kts 224°
2026-05-04 14:02 28.35511 -14.30535 9967 ft 274 kts 224°
2026-05-04 14:02 28.34065 -14.31936 9966 ft 272 kts 224°
2026-05-04 14:02 28.32622 -14.33335 9971 ft 273 kts 224°
2026-05-04 14:02 28.31178 -14.34733 9969 ft 273 kts 224°
2026-05-04 14:03 28.29727 -14.36137 9810 ft 273 kts 224°
2026-05-04 14:03 28.28285 -14.37532 9420 ft 272 kts 224°
2026-05-04 14:03 28.26846 -14.38925 8991 ft 272 kts 223°
2026-05-04 14:03 28.25406 -14.40318 8565 ft 272 kts 223°
2026-05-04 14:04 28.22547 -14.43081 7815 ft 270 kts 223°
2026-05-04 14:04 28.21132 -14.44445 7593 ft 263 kts 223°
2026-05-04 14:04 28.19750 -14.45779 7341 ft 259 kts 223°
2026-05-04 14:05 28.17031 -14.48405 6761 ft 256 kts 223°
2026-05-04 14:05 28.15678 -14.49711 6460 ft 255 kts 222°
2026-05-04 14:05 28.14328 -14.51012 6131 ft 255 kts 222°
2026-05-04 14:06 28.12978 -14.52313 5816 ft 255 kts 222°
2026-05-04 14:06 28.11629 -14.53613 5496 ft 254 kts 222°
2026-05-04 14:06 28.10279 -14.54913 5174 ft 254 kts 222°
2026-05-04 14:06 28.08936 -14.56206 4989 ft 249 kts 222°
2026-05-04 14:07 28.07621 -14.57472 4994 ft 251 kts 222°
2026-05-04 14:07 28.06271 -14.58772 4992 ft 254 kts 221°
2026-05-04 14:07 28.05384 -14.59625 4992 ft 251 kts 221°
2026-05-04 14:07 28.04042 -14.60915 4990 ft 255 kts 221°
2026-05-04 14:08 28.02701 -14.62204 4996 ft 252 kts 222°
2026-05-04 14:08 28.01355 -14.63498 4997 ft 254 kts 221°
2026-05-04 14:08 28.00017 -14.64797 4996 ft 252 kts 225°
2026-05-04 14:08 27.98815 -14.66236 4996 ft 252 kts 227°
2026-05-04 14:09 27.96366 -14.69090 4990 ft 253 kts 227°
2026-05-04 14:09 27.95150 -14.70531 4988 ft 252 kts 228°
2026-05-04 14:10 27.92740 -14.73387 4989 ft 252 kts 227°
2026-05-04 14:10 27.91528 -14.74817 4994 ft 252 kts 227°
2026-05-04 14:10 27.90313 -14.76251 4989 ft 252 kts 227°
2026-05-04 14:10 27.89101 -14.77684 4995 ft 252 kts 228°
2026-05-04 14:11 27.87888 -14.79116 4993 ft 252 kts 227°
2026-05-04 14:11 27.85459 -14.81981 4984 ft 252 kts 227°
2026-05-04 14:11 27.84238 -14.83420 4984 ft 252 kts 227°
2026-05-04 14:12 27.83034 -14.84840 4988 ft 252 kts 227°
2026-05-04 14:12 27.81823 -14.86268 4991 ft 252 kts 228°
2026-05-04 14:12 27.79397 -14.89125 4984 ft 251 kts 227°
2026-05-04 14:13 27.78184 -14.90552 4985 ft 252 kts 227°
2026-05-04 14:13 27.76973 -14.91978 4978 ft 252 kts 227°
2026-05-04 14:13 27.75758 -14.93406 4972 ft 252 kts 227°
2026-05-04 14:13 27.74538 -14.94842 4777 ft 253 kts 227°
2026-05-04 14:14 27.73328 -14.96264 4567 ft 250 kts 227°
2026-05-04 14:14 27.70902 -14.99133 4164 ft 254 kts 231°
2026-05-04 14:14 27.70212 -15.00894 3993 ft 250 kts 268°
2026-05-04 14:15 27.71065 -15.04671 3985 ft 246 kts 293°
2026-05-04 14:15 27.72219 -15.08312 3987 ft 248 kts 291°
2026-05-04 14:16 27.73321 -15.12009 3988 ft 248 kts 291°
2026-05-04 14:16 27.73879 -15.13847 3989 ft 247 kts 290°
2026-05-04 14:17 27.74991 -15.17535 3990 ft 248 kts 290°
2026-05-04 14:17 27.75546 -15.19382 3992 ft 248 kts 291°
2026-05-04 14:17 27.76664 -15.23081 3948 ft 250 kts 290°
2026-05-04 14:18 27.76874 -15.25007 3861 ft 250 kts 259°
2026-05-04 14:18 27.74820 -15.27866 3781 ft 233 kts 203°
2026-05-04 14:19 27.71928 -15.29539 3788 ft 238 kts 217°
2026-05-04 14:19 27.70670 -15.30758 3782 ft 236 kts 226°
2026-05-04 14:19 27.69578 -15.32136 3789 ft 237 kts 232°
2026-05-04 14:19 27.68639 -15.33634 3786 ft 232 kts 239°
2026-05-04 14:20 27.67850 -15.35237 3786 ft 231 kts 245°
2026-05-04 14:20 27.67224 -15.36893 3787 ft 232 kts 251°
2026-05-04 14:20 27.66737 -15.38656 3784 ft 235 kts 257°
2026-05-04 14:21 27.66257 -15.42049 3797 ft 220 kts 268°
2026-05-04 14:21 27.66227 -15.43754 3792 ft 220 kts 274°
2026-05-04 14:21 27.66338 -15.45478 3791 ft 216 kts 280°
2026-05-04 14:21 27.66650 -15.47143 3781 ft 215 kts 295°
2026-05-04 14:22 27.67486 -15.48382 3766 ft 187 kts 325°
2026-05-04 14:22 27.68649 -15.48973 3768 ft 183 kts 352°
2026-05-04 14:22 27.69879 -15.48920 3775 ft 178 kts 15°
2026-05-04 14:22 27.71002 -15.48490 3775 ft 169 kts 21°
2026-05-04 14:23 27.73214 -15.47510 3779 ft 169 kts 22°
2026-05-04 14:23 27.74273 -15.47041 3710 ft 165 kts 22°
2026-05-04 14:23 27.75297 -15.46587 3526 ft 157 kts 22°
2026-05-04 14:24 27.76329 -15.46129 3319 ft 152 kts 22°
2026-05-04 14:24 27.77313 -15.45692 3125 ft 151 kts 23°
2026-05-04 14:24 27.78275 -15.45266 2936 ft 155 kts 23°
2026-05-04 14:24 27.79266 -15.44825 2728 ft 154 kts 22°
2026-05-04 14:25 27.80267 -15.44382 2520 ft 150 kts 23°
2026-05-04 14:25 27.82213 -15.43518 2123 ft 151 kts 22°
2026-05-04 14:25 27.83226 -15.43067 1922 ft 152 kts 22°
2026-05-04 14:26 27.84199 -15.42635 1716 ft 153 kts 23°
2026-05-04 14:26 27.85169 -15.42205 1512 ft 151 kts 23°
2026-05-04 14:26 27.86136 -15.41777 1313 ft 148 kts 24°
2026-05-04 14:26 27.87121 -15.41337 1112 ft 146 kts 22°
2026-05-04 14:27 27.88038 -15.40936 931 ft 147 kts 23°
2026-05-04 14:27 27.88986 -15.40514 730 ft 138 kts 22°
2026-05-04 14:27 27.89878 -15.40123 558 ft 138 kts 22°
2026-05-04 14:27 27.90768 -15.39728 380 ft 146 kts 21°
2026-05-04 14:28 27.91676 -15.39325 191 ft 133 kts 21°
2026-05-04 14:28 27.92496 -15.38967 65 ft 99 kts 22°
2026-05-04 14:28 27.92942 -15.38766 54 ft 44 kts 21°
2026-05-04 14:28 27.93110 -15.38716 58 ft 11 kts 356°
2026-05-04 14:29 27.93177 -15.38720 57 ft 25 kts 356°
2026-05-04 14:29 27.93334 -15.38746 55 ft 0 kts 351°
2026-05-04 14:31 27.93368 -15.38752 55 ft 8 kts 350°
2026-05-04 14:31 27.93436 -15.38826 51 ft 8 kts 290°
2026-05-04 14:32 27.93513 -15.38871 51 ft 8 kts 21°
2026-05-04 14:32 27.93573 -15.38844 51 ft 11 kts 21°
2026-05-04 14:32 27.93651 -15.38815 50 ft 11 kts
2026-05-04 14:32 27.93686 -15.38859 51 ft 8 kts 285°
2026-05-04 14:33 27.93695 -15.38895 51 ft 0 kts 289°